Regional Weather Roundup
Issued by NWS

Home | Current Version | Previous Version | Text Only | Print | Product List | Glossary On
Versions: 1 2 3 4 5 6 7 8 9 10 11 12 13 14 15 16 17 18 19 20 21 22 23 24 25 26 27 28 29 30 31 32 33 34 35 36 37 38 39 40 41 42 43 44 45 46 47 48 49 50
000
ASUS43 KTOP 310659
RWRKS

WEATHER ROUNDUP FOR KANSAS
NATIONAL WEATHER SERVICE GOODLAND KS
200 AM CDT SAT JUL 31 2021

NOTE:  "FAIR" INDICATES FEW OR NO CLOUDS BELOW 12,000 FEET WITH NO
SIGNIFICANT WEATHER AND/OR OBSTRUCTIONS TO VISIBILITY.

KSZ001>006-013>018-027>032-041>047-310800-
NORTHWEST KANSAS

CITY           SKY/WX    TMP DP  RH WIND       PRES   REMARKS
GOODLAND       CLEAR     76  58  53 S12       30.09R
HAYS           CLEAR     76  65  68 S7        30.01F
HILL CITY      PTCLDY    79  64  60 SW6       30.01S
RUSSELL        CLEAR     79  62  56 S12       29.99F
$$

KSZ061>065-074>080-084>089-310800-
SOUTHWEST KANSAS

CITY           SKY/WX    TMP DP  RH WIND       PRES   REMARKS
DODGE CITY     CLEAR     77  63  61 S7        30.06F
GARDEN CITY    CLEAR     75  62  64 S10       30.06F
GREAT BEND     CLEAR     77  66  68 S8        30.03S
LIBERAL        CLEAR     73  63  70 S8        30.09F
$$

KSZ066>073-081>083-090>101-310800-
SOUTHEAST KANSAS

CITY           SKY/WX    TMP DP  RH WIND       PRES   REMARKS
CHANUTE        CLEAR     80  74  81 S7        30.02F
COFFEYVILLE    CLEAR     79  75  87 S5        30.02S
HUTCHINSON     CLEAR     81  65  58 S8        30.02F
NEWTON         CLEAR     80  70  71 S9        30.03F
PARSONS        CLEAR     79  76  90 CALM      30.04S
WICHITA INTL   CLEAR     77  71  82 S7        30.02S
WICHITA JABRA  CLEAR     81  69  67 S10       30.02F
WICHITA MCCONL CLEAR     79  70  73 SW12      30.02F
WINFIELD       CLEAR     78  72  81 S6        30.04S
$$

KSZ007>012-019>026-033>040-048>060-102>105-310800-
NORTHEAST KANSAS

CITY           SKY/WX    TMP DP  RH WIND       PRES   REMARKS
CONCORDIA      PTCLDY    83  65  54 S16       29.96F
EMPORIA        CLEAR     81  74  79 S10       30.00F
LAWRENCE       MOCLDY    76  73  91 SE5       29.97F
MANHATTAN      PTCLDY    78  69  73 SW3       29.98F
OLATHE IND     MOCLDY    78  69  73 SE6       30.01F
OLATHE EXE     MOCLDY    79  72  79 S6        30.01F
SALINA         CLEAR     80  70  71 S7        29.98F
TOPEKA BILLARD MOCLDY    81  71  71 S6        29.96F
TOPEKA FORBES  MOCLDY    79  73  82 S8        29.98F
$$



USA.gov is the U.S. government's official web portal to all federal, state and local government web resources and services.